Andover, NJ

2:11 PM EDT on June 25, 2017 (GMT -0400)
Andover

Weather History for K12N - December, 2013

Change the Weather History Date:

Saturday, December 7, 2013

  Actual Average (KFWN) Record (KFWN)
Temperature  
Mean Temperature 32 °F -  
Max Temperature 37 °F 44 °F 64 °F (1951)
Min Temperature 27 °F 23 °F 1 °F (2002)
Degree Days  
Heating Degree Days 33    
Moisture  
Dew Point 23 °F    
Average Humidity 69    
Maximum Humidity 92    
Minimum Humidity 52    
Precipitation  
Precipitation 0.01 in - - ()
Sea Level Pressure  
Sea Level Pressure 30.36 in    
Wind  
Wind Speed 6 mph (North)    
Max Wind Speed 9 mph    
Max Gust Speed 17 mph    
Averages and records for this station are not official NWS values.
T = Trace of Precipitation, MM = Missing Value Source: NWS Daily Summary

Daily Weather History Graph

Daily Weather History Graph

Search for Another Location

Airport or City:

Trip Planner

Search our weather history database for the weather conditions in past years. The results will help you decide how hot, cold, wet, or windy it might be!

Date:

Astronomy

Dec. 07, 2013 Rise Set
Actual Time 7:10 AM EST 4:30 PM EST
Civil Twilight 6:39 AM EST 5:01 PM EST
Nautical Twilight 6:05 AM EST 5:35 PM EST
Astronomical Twilight 5:31 AM EST 6:09 PM EST
Moon 10:52 AM EST (12/7) 10:11 PM EST (12/7)
Length of Visible Light 10h 21m
Length of Day
9h 19m
Waxing Crescent, 29% of the Moon is Illuminated
Dec 7
Waxing Crescent
Dec 9
First Quarter
Dec 17
Full
Dec 25
Last Quarter
Jan 1
New

Hourly Weather History & Observations

Time (EST) Temp. Windchill Dew Point Humidity Pressure Visibility Wind Dir Wind Speed Gust Speed Precip Events Conditions
12:54 AM 34.0 °F 28.8 °F 32.0 °F 92% 30.14 in - North 5.8 mph - N/A   Unknown
1:54 AM 34.0 °F 28.8 °F 30.9 °F 89% 30.18 in - North 5.8 mph - N/A   Unknown
2:54 AM 33.1 °F 27.7 °F 30.9 °F 92% 30.20 in - North 5.8 mph - 0.01 in   Unknown
3:54 AM 33.1 °F 25.5 °F 30.0 °F 89% 30.19 in - North 9.2 mph - N/A   Unknown
4:54 AM 33.1 °F 28.7 °F 28.9 °F 85% 30.22 in - Variable 4.6 mph - N/A   Unknown
5:54 AM 33.1 °F 28.7 °F 28.0 °F 82% 30.24 in - North 4.6 mph - N/A   Unknown
6:54 AM 33.1 °F 26.9 °F 27.0 °F 78% 30.27 in - North 6.9 mph - N/A   Unknown
7:54 AM 32.0 °F 24.8 °F 25.0 °F 75% 30.31 in - North 8.1 mph - N/A   Unknown
8:54 AM 34.0 °F 28.0 °F 26.1 °F 73% 30.34 in - North 6.9 mph - N/A   Unknown
9:54 AM 35.1 °F 28.6 °F 25.0 °F 67% 30.36 in - North 8.1 mph - N/A   Unknown
10:54 AM 34.0 °F 28.0 °F 23.0 °F 64% 30.36 in - North 6.9 mph 17.3 mph N/A   Unknown
11:54 AM 34.0 °F 27.2 °F 21.9 °F 61% 30.36 in - North 8.1 mph - N/A   Unknown
12:54 PM 35.1 °F 27.9 °F 21.9 °F 59% 30.35 in - NW 9.2 mph - N/A   Unknown
1:54 PM 37.0 °F 30.4 °F 21.0 °F 52% 30.35 in - North 9.2 mph 17.3 mph N/A   Unknown
2:54 PM 37.0 °F 34.5 °F 21.0 °F 52% 30.36 in - Variable 3.5 mph - N/A   Unknown
3:54 PM 34.0 °F 27.2 °F 19.0 °F 54% 30.39 in - NW 8.1 mph - N/A   Unknown
4:54 PM 32.0 °F - 19.9 °F 61% 30.41 in - Calm Calm - N/A   Unknown
5:54 PM 28.0 °F - 21.0 °F 75% 30.44 in - Calm Calm - N/A   Unknown
6:54 PM 27.0 °F - 19.9 °F 75% 30.46 in - Calm Calm - N/A   Unknown
7:54 PM 28.9 °F 23.9 °F 19.0 °F 67% 30.49 in - North 4.6 mph - N/A   Unknown
8:54 PM 30.0 °F 25.2 °F 16.0 °F 56% 30.51 in - Variable 4.6 mph - N/A   Unknown
9:54 PM 28.9 °F 23.9 °F 15.1 °F 56% 30.53 in - Variable 4.6 mph - N/A   Unknown
10:54 PM 27.0 °F 20.5 °F 12.9 °F 56% 30.56 in - NNW 5.8 mph - N/A   Unknown
11:54 PM 27.0 °F 23.0 °F 12.9 °F 56% 30.54 in - Variable 3.5 mph - N/A   Unknown